Weather reports worldwide

Advertisment
Kempten, Germany (10946): temperature & dewpoint: 16.06.2018 15:00:00 - 22.06.2018 15:00:00 (CEST)Kempten, Germany (10946): temperature 5cm & temperature -5cm: 16.06.2018 15:00:00 - 22.06.2018 15:00:00 (CEST)Kempten, Germany (10946): temperature -20cm & temperature -100cm: 16.06.2018 15:00:00 - 22.06.2018 15:00:00 (CEST)Kempten, Germany (10946): wind speed & gusts: 16.06.2018 15:00:00 - 22.06.2018 15:00:00 (CEST)Kempten, Germany (10946): wind direction: 16.06.2018 15:00:00 - 22.06.2018 15:00:00 (CEST)Kempten, Germany (10946): reduced air pressure: 16.06.2018 15:00:00 - 22.06.2018 15:00:00 (CEST)Kempten, Germany (10946): visibility: 16.06.2018 15:00:00 - 22.06.2018 15:00:00 (CEST)Kempten, Germany (10946): sunshine duration: 16.06.2018 15:00:00 - 22.06.2018 15:00:00 (CEST)Kempten, Germany (10946): precipitation: 16.06.2018 15:00:00 - 22.06.2018 15:00:00 (CEST)
Date & Time tt [°C] td [°C] tt 5cm [°C] tt -5cm [°C] tt -20cm [°C] tt -100cm [°C] ff [km/h] ff [kn] fx [km/h] fx [kn] dd ppp [hPa] vv [km] sd [min] rr [mm]
22.06.2018 15:00:00 14,9 3,6 17,6 23,9 21,5 16,9 15 8 28 15 W 1022,7 23 11 0,0
22.06.2018 14:00:00 14,6 3,4 17,4 24,0 21,0 16,9 14 8 30 16 WNW 1022,8 29 22 0,0
22.06.2018 13:00:00 14,5 2,0 18,1 23,2 20,6 16,9 16 8 34 18 W 1023,0 25 32 0,0
22.06.2018 12:00:00 13,7 4,0 16,1 21,6 20,2 16,9 15 8 32 17 W 1023,3 25 32 0,0
22.06.2018 11:00:00 13,2 4,4 18,0 20,3 19,8 16,9 12 7 24 13 WNW 1022,9 22 41 0,0
22.06.2018 10:00:00 12,3 4,6 16,9 18,4 19,8 16,9 7 4 17 9 N 1023,2 25 56 0,0
22.06.2018 09:00:00 10,8 3,8 13,9 16,8 20,0 16,8 7 4 17 9 WNW 1023,5 29 24 0,0
22.06.2018 08:00:00 10,6 3,3 13,0 15,9 20,3 16,8 9 5 16 8 NW 1023,7 20 24 0,0
22.06.2018 07:00:00 9,8 3,7 9,7 15,6 20,7 16,8 4 2 10 6 NW 1023,7 39 2 0,0
22.06.2018 06:00:00 9,1 4,7 8,5 15,8 21,3 16,8 3 2 11 6 N 1024,0 35 0 0,0
22.06.2018 05:00:00 10,4 2,5 9,9 16,6 21,8 16,8 8 4 15 8 N 1023,5 39 0 0,0
22.06.2018 04:00:00 11,2 2,3 10,7 17,3 22,4 16,8 10 6 19 10 NNW 1023,1 39 0 0,0
22.06.2018 03:00:00 12,3 3,1 11,5 18,4 22,9 16,8 9 5 20 11 N 1022,2 41 0 0,0
22.06.2018 02:00:00 13,5 6,5 12,0 19,5 23,5 16,8 5 3 12 6 NNW 1021,6 36 0 0,0
22.06.2018 01:00:00 13,5 8,3 11,7 20,3 24,0 16,8 7 4 29 16 NW 1020,9 14 0 0,4
22.06.2018 00:00:00 16,0 9,3 15,1 21,7 24,6 16,8 13 7 25 14 NW 1019,0 28 0 0,0
21.06.2018 23:00:00 16,8 13,3 15,7 23,2 25,0 16,7 8 5 24 13 NNW 1017,7 29 0 0,5
21.06.2018 22:00:00 18,8 12,3 18,6 24,5 25,5 16,7 10 5 23 13 NW 1016,6 36 0 0,0
21.06.2018 21:00:00 20,3 12,4 20,1 25,9 25,8 16,7 11 6 24 13 NNW 1015,4 36 0 0,0
21.06.2018 20:00:00 21,7 11,2 21,9 27,6 26,0 16,7 11 6 20 11 NW 1014,3 39 3 0,0
21.06.2018 19:00:00 22,2 12,7 22,8 29,1 26,0 16,7 11 6 24 13 NW 1013,6 32 13 0,0
21.06.2018 18:00:00 23,3 12,4 25,9 31,3 25,8 16,7 15 8 33 18 NW 1013,2 30 49 0,0
21.06.2018 17:00:00 24,9 14,5 30,2 31,8 25,3 16,7 16 9 34 18 NNW 1012,5 23 49 0,0
21.06.2018 16:00:00 25,5 14,6 29,7 31,0 24,9 16,7 17 9 41 22 W 1012,5 17 32 0,0
21.06.2018 15:00:00 25,4 13,7 27,6 30,9 24,4 16,7 17 9 40 22 W 1012,8 22 27 0,0
21.06.2018 14:00:00 25,4 14,4 30,5 31,3 23,6 16,6 15 8 29 16 W 1012,8 23 42 0,0
21.06.2018 13:00:00 25,2 14,1 28,4 30,3 22,7 16,6 13 7 32 17 W 1013,4 29 44 0,0
21.06.2018 12:00:00 25,2 14,3 28,7 28,1 22,0 16,6 14 8 34 18 W 1013,9 17 57 0,0
21.06.2018 11:00:00 24,6 13,9 28,3 25,5 21,4 16,6 14 7 30 16 - 1013,9 19 55 0,0
21.06.2018 10:00:00 24,1 13,9 26,8 23,3 21,0 16,6 14 8 27 15 - 1014,2 18 58 0,0
21.06.2018 09:00:00 21,5 14,7 25,4 21,1 20,9 16,6 7 4 16 9 - 1015,4 31 37 0,0
21.06.2018 08:00:00 19,5 13,9 22,1 19,3 21,1 16,6 7 4 16 9 - 1016,1 22 60 0,0
21.06.2018 07:00:00 16,8 13,2 16,7 18,1 21,4 16,6 6 3 16 9 - 1016,9 20 12 0,0
21.06.2018 06:00:00 15,3 12,5 13,2 18,1 21,9 16,6 7 4 14 7 - 1017,3 27 0 0,0
21.06.2018 05:00:00 14,4 12,5 12,5 18,6 22,3 16,6 8 4 12 6 - 1017,6 25 0 0,0
21.06.2018 04:00:00 15,1 12,8 13,1 19,2 22,8 16,6 6 4 17 9 - 1017,8 27 0 0,0
21.06.2018 03:00:00 14,7 13,3 13,4 19,9 23,4 16,6 8 5 10 6 - 1018,4 19 0 0,0
21.06.2018 02:00:00 14,8 13,5 13,6 20,7 23,9 16,6 8 4 10 5 - 1018,6 14 0 0,0
21.06.2018 01:00:00 15,3 13,8 14,0 21,7 24,5 16,6 5 3 9 5 - 1018,8 17 0 0,0
21.06.2018 00:00:00 16,5 14,5 15,2 22,9 25,1 16,6 6 3 8 4 - 1019,0 19 0 0,0
20.06.2018 23:00:00 17,5 14,9 15,9 24,3 25,7 16,5 2 1 6 3 - 1018,8 25 0 0,0
20.06.2018 22:00:00 19,6 15,3 17,4 26,0 26,2 16,5 1 1 9 5 N 1017,8 33 0 0,0
20.06.2018 21:00:00 23,1 14,2 21,2 28,3 26,5 16,5 5 3 12 6 - 1016,7 35 35 0,0
20.06.2018 20:00:00 25,5 12,7 27,0 30,8 26,5 16,5 8 5 17 9 - 1015,9 30 60 0,0
20.06.2018 19:00:00 26,5 11,2 30,0 32,6 26,3 16,5 7 4 16 9 - 1015,8 24 60 0,0
20.06.2018 18:00:00 26,6 11,5 31,6 33,9 25,8 16,5 7 4 16 9 - 1016,1 22 60 0,0
20.06.2018 17:00:00 26,8 12,1 31,7 34,5 25,1 16,5 9 5 19 11 - 1016,4 12 60 0,0
20.06.2018 16:00:00 26,4 11,4 32,4 34,3 24,2 16,5 9 5 18 10 - 1016,9 25 60 0,0
20.06.2018 15:00:00 26,4 12,7 34,0 33,4 23,1 16,5 8 5 20 11 - 1017,1 22 60 0,0
20.06.2018 14:00:00 25,6 10,2 32,5 31,7 22,1 16,5 9 5 22 12 - 1017,8 22 59 0,0
20.06.2018 13:00:00 24,9 12,3 31,0 29,4 21,0 16,5 9 5 19 11 - 1018,3 21 60 0,0
20.06.2018 12:00:00 24,3 11,9 30,6 26,6 20,1 16,5 7 4 20 11 - 1018,7 24 60 0,0
20.06.2018 11:00:00 23,4 13,0 28,1 23,7 19,4 16,5 10 5 19 10 - 1018,9 17 60 0,0
20.06.2018 10:00:00 22,4 12,5 26,2 21,3 19,0 16,5 10 5 18 10 - 1019,4 21 60 0,0
20.06.2018 09:00:00 19,4 12,8 22,4 18,8 18,9 16,5 0 0 6 3 N 1020,7 25 60 0,0
20.06.2018 08:00:00 16,3 12,4 18,0 16,8 19,1 16,5 3 2 9 5 - 1021,9 26 60 0,0
20.06.2018 07:00:00 13,2 11,9 13,9 15,5 19,5 16,5 4 2 8 4 - 1023,0 23 14 0,0
20.06.2018 06:00:00 11,4 10,5 10,6 15,7 19,9 16,5 5 3 9 5 - 1023,6 13 0 0,0
20.06.2018 05:00:00 11,7 11,0 10,4 16,2 20,3 16,5 6 3 9 5 - 1023,6 10 0 0,0
20.06.2018 04:00:00 12,3 11,4 10,9 16,8 20,8 16,5 6 3 8 5 - 1023,5 16 0 0,0
20.06.2018 03:00:00 12,6 11,6 11,3 17,5 21,2 16,5 4 2 8 5 - 1023,8 11 0 0,0
20.06.2018 02:00:00 12,8 11,8 11,5 18,2 21,8 16,5 0 0 9 5 N 1024,1 12 0 0,0
20.06.2018 01:00:00 13,6 12,3 12,6 19,1 22,3 16,5 3 2 8 4 - 1024,1 17 0 0,0
20.06.2018 00:00:00 14,4 12,7 12,9 20,1 22,8 16,5 3 1 5 3 - 1023,8 19 0 0,0
19.06.2018 23:00:00 15,3 13,2 13,7 21,3 23,4 16,5 1 1 9 5 N 1023,8 24 0 0,0
19.06.2018 22:00:00 19,1 12,2 16,6 22,8 23,8 16,5 6 3 9 5 - 1022,5 36 0 0,0
19.06.2018 21:00:00 20,3 12,3 18,6 24,9 24,1 16,5 5 3 16 8 - 1022,0 41 34 0,0
19.06.2018 20:00:00 22,8 11,1 24,3 27,2 24,1 16,5 8 4 16 9 - 1021,2 30 60 0,0
19.06.2018 19:00:00 23,9 11,5 28,8 28,9 23,8 16,5 7 4 19 10 - 1021,0 29 57 0,0
19.06.2018 18:00:00 24,2 11,5 29,4 30,1 23,4 16,5 7 4 17 9 - 1020,9 17 60 0,0
19.06.2018 17:00:00 23,6 10,0 28,9 29,9 22,7 16,5 7 4 16 9 - 1021,4 16 58 0,0
19.06.2018 16:00:00 22,8 9,9 27,7 29,4 22,0 16,5 9 5 17 9 - 1022,0 17 60 0,0
19.06.2018 15:00:00 22,9 10,3 27,7 28,0 21,3 16,5 10 6 20 11 - 1022,4 9 52 0,0
19.06.2018 14:00:00 22,9 12,2 26,3 27,5 20,6 16,5 7 4 18 10 - 1022,5 40 59 0,0
19.06.2018 13:00:00 21,4 10,6 26,5 26,2 19,8 16,5 6 3 18 10 - 1023,0 21 53 0,0
19.06.2018 12:00:00 20,4 10,4 24,9 24,6 19,0 16,5 6 4 14 7 - 1023,4 22 58 0,0
19.06.2018 11:00:00 19,8 11,2 25,0 22,5 18,4 16,5 6 4 13 7 - 1023,8 23 60 0,0
19.06.2018 10:00:00 18,7 10,2 22,3 20,0 18,0 16,5 5 3 9 5 - 1024,3 39 60 0,0
19.06.2018 09:00:00 17,5 12,6 20,3 17,9 17,8 16,4 5 3 11 6 - 1024,7 21 47 0,0
19.06.2018 08:00:00 14,1 11,0 15,2 16,0 17,9 16,4 6 3 12 6 S 1025,6 19 3 0,0
19.06.2018 07:00:00 12,8 11,0 12,7 15,0 18,2 16,4 6 4 11 6 S 1025,7 19 0 0,0
19.06.2018 06:00:00 11,3 10,5 11,0 14,9 18,5 16,4 7 4 9 5 ESE 1025,9 11 0 0,0
19.06.2018 05:00:00 11,6 10,7 10,7 15,3 18,8 16,4 5 3 7 4 ESE 1025,4 13 0 0,0
19.06.2018 04:00:00 12,2 11,1 10,7 16,0 19,2 16,4 5 3 7 4 E 1024,9 10 0 0,0
19.06.2018 03:00:00 13,3 11,6 12,7 16,4 19,5 16,4 5 3 8 4 ESE 1024,3 20 0 0,0
19.06.2018 02:00:00 13,4 11,9 11,9 16,9 19,8 16,4 6 3 11 6 ESE 1024,3 14 0 0,0
19.06.2018 01:00:00 14,5 11,9 13,7 17,1 20,2 16,4 8 4 14 7 SW 1024,0 24 0 0,0
19.06.2018 00:00:00 14,7 12,4 12,9 18,0 20,6 16,4 8 4 13 7 SSE 1023,7 17 0 0,0
18.06.2018 23:00:00 15,9 13,2 14,1 19,1 21,0 16,4 6 4 11 6 SE 1022,9 10 0 0,0
18.06.2018 22:00:00 16,1 13,8 15,6 19,9 21,3 16,4 2 1 6 3 SE 1022,3 13 0 0,0
18.06.2018 21:00:00 18,2 12,9 16,4 21,1 21,6 16,4 3 2 10 5 S 1021,4 23 21 0,0
18.06.2018 20:00:00 19,7 12,5 19,8 22,5 21,6 16,4 8 4 14 8 SSW 1020,7 22 33 0,0
18.06.2018 19:00:00 19,4 12,1 19,6 23,7 21,5 16,4 7 4 15 8 N 1020,8 22 28 0,0
18.06.2018 18:00:00 20,9 10,8 23,7 24,6 21,3 16,4 5 3 13 7 N 1020,2 27 25 0,0
18.06.2018 17:00:00 20,5 11,1 24,2 24,5 21,1 16,4 4 2 16 8 NNW 1020,5 23 18 0,0
18.06.2018 16:00:00 20,2 11,3 23,0 24,5 20,8 16,4 5 3 18 10 N 1020,7 27 18 0,0
18.06.2018 15:00:00 19,1 10,7 21,6 24,1 20,5 16,4 10 6 17 9 NNW 1021,4 20 1 0,0
18.06.2018 14:00:00 19,8 11,5 24,1 23,9 20,0 16,4 6 3 18 10 N 1021,1 25 1 0,0
18.06.2018 13:00:00 18,5 11,0 21,6 23,5 19,6 16,4 8 4 16 9 NNW 1021,7 27 0 0,0
18.06.2018 12:00:00 18,0 10,7 21,0 23,0 19,1 16,4 10 5 16 8 NNW 1021,6 24 14 0,0
18.06.2018 11:00:00 17,7 11,3 20,4 21,3 18,7 16,4 7 4 11 6 N 1021,8 28 0 0,0
18.06.2018 10:00:00 16,9 10,7 18,9 19,8 18,4 16,4 4 2 8 4 NNW 1021,9 25 7 0,0
18.06.2018 09:00:00 16,3 11,0 17,0 18,6 18,2 16,4 1 1 6 4 N 1021,9 21 32 0,0
18.06.2018 08:00:00 14,5 12,3 15,1 17,1 18,3 16,4 0 0 6 3 N 1022,2 12 7 0,0
18.06.2018 07:00:00 13,5 12,7 13,9 16,2 18,5 16,4 2 1 4 2 SW 1022,4 6 0 0,0
18.06.2018 06:00:00 12,9 12,2 12,8 16,2 18,7 16,4 0 0 5 3 N 1022,2 2,6 0 0,0
18.06.2018 05:00:00 13,2 12,4 13,0 16,6 18,9 16,4 4 2 19 10 NE 1021,9 11 0 2,0
18.06.2018 04:00:00 14,1 13,5 14,1 16,9 19,1 16,4 2 1 5 3 SE 1021,4 5 0 0,0
18.06.2018 03:00:00 14,2 13,5 14,0 17,1 19,3 16,4 0 0 8 5 N 1021,3 4,3 0 0,0
18.06.2018 02:00:00 14,6 14,0 14,5 17,5 19,5 16,3 0 0 8 4 N 1021,4 4,4 0 0,0
18.06.2018 01:00:00 14,6 13,9 14,8 17,7 19,8 16,3 5 3 6 4 SSE 1021,3 2,8 0 0,1
18.06.2018 00:00:00 14,8 14,1 14,8 18,0 20,0 16,3 2 1 8 4 S 1021,1 4,8 0 0,4
17.06.2018 23:00:00 15,0 14,3 15,1 18,3 20,3 16,3 2 1 5 3 SSW 1020,7 3,2 0 0,4
17.06.2018 22:00:00 14,9 14,2 14,8 18,6 20,5 16,3 1 1 9 5 SE 1020,1 3,9 0 0,6
17.06.2018 21:00:00 15,4 14,4 15,3 19,1 20,8 16,3 5 3 11 6 N 1019,3 11 0 0,0
17.06.2018 20:00:00 15,3 14,1 15,5 19,5 21,1 16,4 6 4 12 7 S 1018,8 16 0 0,0
17.06.2018 19:00:00 15,3 14,5 15,9 19,6 21,6 16,4 5 3 12 7 SSE 1018,2 11 0 5,9
17.06.2018 18:00:00 15,1 14,4 15,0 20,5 22,0 16,3 9 5 27 15 W 1018,6 0,5 0 11,1
17.06.2018 17:00:00 16,2 15,5 16,7 22,9 22,1 16,3 9 5 18 10 SE 1017,3 4,1 0 3,2
17.06.2018 16:00:00 20,3 12,7 21,4 25,2 21,9 16,3 4 2 18 10 N 1015,9 27 0 0,0
17.06.2018 15:00:00 20,6 11,7 23,5 26,3 21,5 16,3 7 4 18 10 NNW 1016,0 30 2 0,0
17.06.2018 14:00:00 20,3 12,6 23,1 27,0 20,9 16,3 11 6 21 11 NNW 1016,2 23 24 0,0
17.06.2018 13:00:00 19,4 12,9 22,2 24,8 20,4 16,3 10 5 22 12 NNW 1016,9 16 10 0,0
17.06.2018 12:00:00 20,1 12,7 24,7 23,4 19,9 16,3 7 4 23 12 N 1016,7 18 5 0,0
17.06.2018 11:00:00 20,7 12,7 26,3 23,7 19,3 16,3 6 3 16 8 N 1016,5 17 53 0,0
17.06.2018 10:00:00 18,8 10,8 22,9 21,2 19,0 16,3 6 4 17 9 N 1017,0 23 24 0,0
17.06.2018 09:00:00 17,8 10,6 20,3 19,6 18,9 16,3 4 2 8 4 NW 1017,0 23 48 0,0
17.06.2018 08:00:00 15,5 9,7 17,0 17,0 19,0 16,3 4 2 12 7 S 1017,2 23 41 0,0
17.06.2018 07:00:00 13,7 9,5 14,0 15,9 19,3 16,3 5 3 12 6 ESE 1017,6 28 8 0,0
17.06.2018 06:00:00 13,1 8,9 11,7 16,1 19,7 16,3 8 5 13 7 SSE 1017,4 25 0 0,0
17.06.2018 05:00:00 12,8 9,4 11,8 16,3 20,1 16,3 9 5 19 11 SE 1017,2 20 0 0,0
17.06.2018 04:00:00 13,5 9,6 11,8 16,7 20,6 16,3 8 4 16 8 SSE 1016,9 24 0 0,0
17.06.2018 03:00:00 12,4 9,9 10,5 17,4 21,1 16,3 6 4 14 8 SE 1017,2 19 0 0,0
17.06.2018 02:00:00 12,0 10,4 10,5 18,2 21,7 16,3 8 4 10 6 ESE 1017,3 14 0 0,0
17.06.2018 01:00:00 12,4 10,5 11,0 19,1 22,2 16,3 7 4 9 5 ESE 1017,3 13 0 0,0
17.06.2018 00:00:00 13,7 10,9 12,7 20,3 22,8 16,3 7 4 9 5 ESE 1016,8 17 0 0,0
16.06.2018 23:00:00 14,7 11,6 13,8 21,6 23,3 16,3 6 4 9 5 ESE 1016,3 17 0 0,0
16.06.2018 22:00:00 16,7 12,2 15,0 23,3 23,8 16,3 3 2 8 4 ENE 1015,2 21 0 0,0
16.06.2018 21:00:00 19,3 11,2 18,3 25,2 24,1 16,3 4 2 11 6 N 1013,8 25 23 0,0
16.06.2018 20:00:00 22,0 6,5 22,0 27,3 24,3 16,3 6 3 16 9 WNW 1013,0 38 52 0,0
16.06.2018 19:00:00 23,0 5,7 26,4 29,9 24,1 16,3 9 5 18 10 NW 1012,5 29 60 0,0
16.06.2018 18:00:00 23,2 6,0 29,3 31,5 23,6 16,3 6 3 15 8 W 1012,0 41 60 0,0
16.06.2018 17:00:00 23,9 8,2 29,8 32,1 22,9 16,3 6 3 17 9 NNW 1012,0 59 60 0,0
16.06.2018 16:00:00 23,6 7,2 29,5 31,8 22,0 16,3 7 4 16 9 N 1012,3 29 58 0,0
16.06.2018 15:00:00 22,3 6,7 28,6 31,3 20,9 16,3 8 4 18 10 N 1012,9 18 60 0,0

tt = temperature
td = dewpoint
tt 5cm = temperature 5cm
tt -5cm = temperature -5cm
tt -20cm = temperature -20cm
tt -100cm = temperature -100cm
ff = wind speed
fx = gusts
dd = wind direction
ppp = reduced air pressure
vv = visibility
sd = sunshine duration
rr = precipitation

Next stations